This is the latest recevied weather packets stored in our database for station/object WA2GUG. If no packets are shown the sender has not sent any weather packets the latest 1 day(s).
| Time | Temp. | Humidity | Pressure | Rain* | Wind** | Luminosity | Snow |
|---|---|---|---|---|---|---|---|
| 1778115263 | 10° C | 99% | 1006.1 hPa | - | - | - | - |
| 1778114963 | - | 99% | 1006 hPa | - | - | - | - |
| 1778113763 | 10° C | 99% | 1006 hPa | - | - | - | - |
| 1778113163 | 9.44° C | 99% | 1006 hPa | - | - | - | - |
| 1778111363 | 9.44° C | 99% | 1005.2 hPa | - | - | - | - |
| 1778106263 | - | 99% | 1005 hPa | - | - | - | - |
| 1778105063 | 16.11° C | 99% | 1004 hPa | - | - | - | - |
| 1778101763 | 17.22° C | 99% | 1003.2 hPa | - | - | - | - |
| 1778101463 | 17.22° C | 99% | 1003.2 hPa | - | - | - | - |
| 1778101163 | 17.22° C | 99% | 1003.1 hPa | - | - | - | - |
| 1778099063 | 17.22° C | 99% | 1003.2 hPa | - | - | - | - |
| 1778098763 | 17.78° C | 99% | 1003 hPa | - | - | - | - |
| 1778098463 | 17.78° C | 99% | 1003.1 hPa | - | - | - | - |
| 1778097263 | 17.22° C | 99% | 1003.2 hPa | - | - | - | - |
| 1778096663 | 17.78° C | 99% | 1004 hPa | - | - | - | - |
| 1778096363 | 17.78° C | 99% | 1004 hPa | - | - | - | - |
| 1778095763 | 17.78° C | 99% | 1003.2 hPa | - | - | - | - |
| 1778095463 | 17.78° C | 99% | 1004 hPa | - | - | - | - |
| 1778095163 | 17.78° C | 99% | 1003.2 hPa | - | - | - | - |
| 1778094563 | 17.22° C | 99% | 1004 hPa | - | - | - | - |
| 1778094263 | 17.22° C | 99% | 1004 hPa | - | - | - | - |
| 1778093963 | 17.22° C | 99% | 1003.2 hPa | - | - | - | - |
| 1778093663 | - | 99% | 1004 hPa | - | - | - | - |
| 1778093063 | - | 99% | 1004 hPa | - | - | - | - |
| 1778092763 | - | 99% | 1004 hPa | - | - | - | - |
* Rain since midnight (hover to see other rain measurements)
** Current wind speed in m/s (hover to see current wind gust speed)